Content
SEND FEEDBACK

Daily
Averages
Monthly
Summary
United States of America

STOCKTON, ILLINOIS


Home > North America > United States > Illinois
Elevation: 917 feet     Latitude: 42 20N     Longitude: 090 00W

WEATHER
 
SELECT A DAY
Number of Records: 257,799;   Date Range: 1/21/04 - 7/23/14
 
SHARE

PRINT THIS DATA

[ ← Previous Day ]
WEATHER ALMANAC - JANUARY 31, 2013
[ Next Day → ]
[ °C ]   °F
Weather ElementAverageHighLow
Temperature9.2 °F17.4 °F (12:35 am)0.9 °F (11:55 pm)
Dewpoint2.4 °F11.8 °F (2:15 am)-6.7 °F (11:35 pm)
Humidity74 %81 % (2:15 am)66 % (12:15 pm)
Barometer29.97 in30.26 in (11:55 pm)29.73 in (12:35 am)
Wind Speed14.3 mph18.4 mph (11:55 am)
Wind Gust27.6 mph (3:35 am)
Weather ElementAverage
Visibility8.9 mi
Wind DirectionWNW (279.7 °)

Weather ElementTotal
Precipitation---
Heating Degree Days55.9 (Base 65)
Averaged from 71 records on January 31, 2013
WEATHER CONDITIONS BREAKOUT
WIND DIRECTION BREAKOUT
WEATHER BY HOUR - JANUARY 31, 2013
[ °C ]   °F
Local TimeTemperatureDewpointHumidityBarometerVisibilityWind DirectionWind SpeedGust SpeedPrecipitationEventsConditions
12:35 AM17.4 °F11.1 °F76 %29.73 in10.0 miWest (270°)16.1 mph23.0 mphOvercast
12:55 AM16.7 °F10.6 °F77 %29.74 in10.0 miWest (260°)15.0 mph21.9 mphOvercast
1:15 AM16.2 °F10.6 °F79 %29.74 in10.0 miWest (270°)12.7 mph18.4 mphMostly Cloudy
1:35 AM16.7 °F11.3 °F79 %29.75 in7.0 miWest (270°)16.1 mph20.7 mphSnowLight Snow
1:55 AM17.1 °F11.3 °F78 %29.76 in10.0 miWest (270°)16.1 mph21.9 mphOvercast
2:15 AM16.7 °F11.8 °F81 %29.76 in10.0 miWest (270°)10.4 mph17.3 mphSnowLight Snow
2:35 AM16.7 °F11.5 °F80 %29.77 in10.0 miWest (270°)12.7 mph19.6 mphSnowLight Snow
2:55 AM16.5 °F10.8 °F78 %29.77 in7.0 miWest (280°)15.0 mph23.0 mphSnowLight Snow
3:15 AM16.5 °F10.4 °F77 %29.77 in10.0 miWest (270°)12.7 mph18.4 mphOvercast
3:35 AM15.8 °F9.5 °F76 %29.78 in10.0 miWest (280°)17.3 mph27.6 mphOvercast
3:55 AM15.8 °F9.1 °F75 %29.78 in10.0 miWest (270°)17.3 mph24.2 mphOvercast
4:15 AM15.4 °F9.5 °F77 %29.78 in10.0 miWest (270°)16.1 mph21.9 mphOvercast
4:35 AM14.5 °F8.4 °F77 %29.78 in10.0 miWNW (290°)12.7 mph23.0 mphMostly Cloudy
4:55 AM14.0 °F7.7 °F76 %29.79 in10.0 miWNW (290°)9.2 mphScattered Clouds
5:15 AM13.1 °F7.5 °F78 %29.79 in7.0 miWNW (290°)11.5 mph18.4 mphMostly Cloudy
5:35 AM12.4 °F6.4 °F77 %29.81 in10.0 miWNW (290°)12.7 mph21.9 mphMostly Cloudy
5:55 AM11.5 °F6.1 °F79 %29.82 in7.0 miWest (280°)16.1 mph21.9 mphSnowLight Snow
6:15 AM10.4 °F4.5 °F77 %29.83 in10.0 miWest (270°)13.8 mph19.6 mphScattered Clouds
6:35 AM9.7 °F4.1 °F78 %29.84 in10.0 miWest (270°)12.7 mph19.6 mphScattered Clouds
6:55 AM9.5 °F4.5 °F80 %29.85 in10.0 miWest (260°)11.5 mph17.3 mphScattered Clouds
7:15 AM9.5 °F4.1 °F79 %29.86 in10.0 miWest (280°)9.2 mph17.3 mphOvercast
7:35 AM9.0 °F3.7 °F79 %29.86 in10.0 miWest (280°)16.1 mph19.6 mphMostly Cloudy
7:55 AM9.0 °F3.4 °F78 %29.87 in10.0 miWest (280°)11.5 mphScattered Clouds
8:15 AM9.3 °F3.2 °F76 %29.88 in10.0 miWest (280°)15.0 mph21.9 mphMostly Cloudy
8:35 AM9.3 °F3.2 °F76 %29.88 in10.0 miWest (270°)13.8 mph20.7 mphMostly Cloudy
8:55 AM9.3 °F3.2 °F76 %29.89 in10.0 miWNW (290°)10.4 mphScattered Clouds
9:15 AM10.0 °F3.6 °F75 %29.90 in10.0 miWest (280°)9.2 mph17.3 mphScattered Clouds
9:35 AM10.4 °F3.4 °F73 %29.91 in10.0 miWest (280°)13.8 mph18.4 mphMostly Cloudy
9:55 AM10.9 °F3.9 °F73 %29.91 in10.0 miWest (280°)13.8 mph20.7 mphOvercast
10:15 AM10.0 °F3.4 °F74 %29.92 in7.0 miWest (270°)12.7 mph17.3 mphOvercast
10:35 AM10.2 °F3.0 °F73 %29.93 in7.0 miWNW (290°)12.7 mph21.9 mphMostly Cloudy
10:55 AM10.9 °F3.0 °F70 %29.94 in10.0 miWest (280°)12.7 mph20.7 mphMostly Cloudy
11:15 AM10.2 °F2.5 °F71 %29.95 in7.0 miWNW (290°)16.1 mph20.7 mphMostly Cloudy
11:35 AM11.3 °F3.2 °F70 %29.95 in10.0 miWest (270°)12.7 mph19.6 mphMostly Cloudy
11:55 AM10.9 °F1.9 °F67 %29.96 in10.0 miWest (270°)18.4 mph23.0 mphMostly Cloudy
12:15 PM10.9 °F1.6 °F66 %29.96 in10.0 miWest (280°)18.4 mph24.2 mphMostly Cloudy
12:35 PM10.4 °F3.6 °F74 %29.97 in2.5 miWest (280°)17.3 mphHaze
12:55 PM10.9 °F2.7 °F69 %29.97 in10.0 miWest (280°)12.7 mph23.0 mphOvercast
1:15 PM9.9 °F1.4 °F69 %29.98 in10.0 miWest (270°)16.1 mph24.2 mphOvercast
1:35 PM9.7 °F1.2 °F69 %29.98 in10.0 miWNW (290°)15.0 mph23.0 mphOvercast
1:55 PM10.0 °F1.4 °F68 %29.99 in10.0 miWest (280°)15.0 mph21.9 mphMostly Cloudy
2:15 PM9.9 °F1.9 °F70 %29.99 in10.0 miWest (270°)16.1 mph25.3 mphMostly Cloudy
2:35 PM9.7 °F1.9 °F71 %30.00 in7.0 miWNW (290°)15.0 mph19.6 mphMostly Cloudy
2:55 PM9.5 °F2.7 °F74 %30.01 in5.0 miWNW (290°)15.0 mph24.2 mphHaze
3:15 PM9.1 °F2.3 °F74 %30.01 in4.0 miWest (280°)15.0 mph24.2 mphHaze
3:35 PM9.0 °F1.9 °F73 %30.03 in7.0 miWest (270°)17.3 mph23.0 mphOvercast
3:55 PM8.4 °F3.0 °F79 %30.04 in1.8 miWest (270°)12.7 mph24.2 mphHaze
4:15 PM8.6 °F3.0 °F78 %30.04 in3.0 miWest (270°)16.1 mph21.9 mphHaze
4:35 PM7.7 °F1.9 °F77 %30.05 in2.5 miWNW (290°)13.8 mph20.7 mphHaze
4:55 PM6.8 °F-0.4 °F72 %30.07 in7.0 miWest (270°)17.3 mph24.2 mphMostly Cloudy
5:15 PM6.3 °F-1.1 °F72 %30.08 in7.0 miWest (280°)15.0 mph26.5 mphMostly Cloudy
5:35 PM5.9 °F-1.3 °F72 %30.09 in10.0 miWest (270°)16.1 mph23.0 mphMostly Cloudy
5:55 PM5.2 °F-1.3 °F75 %30.11 in7.0 miWest (280°)16.1 mph27.6 mphMostly Cloudy
6:15 PM5.0 °F-2.4 °F72 %30.12 in10.0 miWest (280°)17.3 mph27.6 mphScattered Clouds
6:35 PM4.6 °F-1.7 °F75 %30.12 in7.0 miWest (280°)11.5 mph24.2 mphMostly Cloudy
6:55 PM4.5 °F-2.2 °F74 %30.13 in10.0 miWNW (290°)17.3 mph24.2 mphMostly Cloudy
7:15 PM4.3 °F-2.6 °F73 %30.14 in10.0 miWest (280°)13.8 mph26.5 mphMostly Cloudy
7:35 PM4.1 °F-3.5 °F71 %30.15 in10.0 miWNW (290°)17.3 mph26.5 mphMostly Cloudy
7:55 PM3.7 °F-4.2 °F70 %30.16 in10.0 miWNW (300°)17.3 mph24.2 mphMostly Cloudy
8:15 PM3.2 °F-4.0 °F72 %30.17 in10.0 miWNW (290°)15.0 mph25.3 mphScattered Clouds
8:35 PM3.0 °F-4.0 °F73 %30.18 in10.0 miWNW (290°)18.4 mph25.3 mphScattered Clouds
8:55 PM2.8 °F-3.6 °F74 %30.19 in10.0 miWNW (290°)13.8 mph21.9 mphScattered Clouds
9:15 PM3.0 °F-4.5 °F71 %30.20 in10.0 miWNW (290°)12.7 mph23.0 mphClear
9:35 PM2.3 °F-4.4 °F74 %30.21 in10.0 miWNW (290°)15.0 mph21.9 mphClear
9:55 PM2.3 °F-5.3 °F71 %30.21 in10.0 miWNW (300°)16.1 mph20.7 mphClear
10:15 PM2.3 °F-5.6 °F70 %30.21 in10.0 miWNW (290°)12.7 mph19.6 mphClear
10:35 PM1.9 °F-6.0 °F69 %30.22 in10.0 miWNW (290°)16.1 mph21.9 mphClear
10:55 PM1.4 °F-6.2 °F71 %30.23 in10.0 miWest (280°)10.4 mph16.1 mphClear
11:15 PM1.4 °F-6.5 °F69 %30.24 in10.0 miWest (280°)10.4 mph21.9 mphClear
11:35 PM1.0 °F-6.7 °F70 %30.25 in10.0 miWest (280°)10.4 mph19.6 mphClear
11:55 PM0.9 °F-6.7 °F71 %30.26 in10.0 miWest (280°)15.0 mph19.6 mphClear
Hourly data recorded from KSFY, located miles away from Stockton, Illinois







STORIES FROM OUR PARTNERS